Haines, AK

9:16 AM AKDT on April 24, 2018 (GMT -0800)
Haines

Weather History for PAHN - October, 2011

Change the Weather History Date:

Thursday, October 20, 2011

  Actual Average Record
Temperature  
Mean Temperature 43 °F -  
Max Temperature 45 °F 43 °F 55 °F (1979)
Min Temperature 42 °F 35 °F 24 °F (1992)
Degree Days  
Heating Degree Days 22    
Moisture  
Dew Point 38 °F    
Average Humidity 82    
Maximum Humidity 87    
Minimum Humidity 76    
Precipitation  
Precipitation 0.00 in - - ()
Sea Level Pressure  
Sea Level Pressure 29.91 in    
Wind  
Wind Speed 8 mph (East)    
Max Wind Speed 16 mph    
Max Gust Speed 23 mph    
Visibility 10 miles    
Events Rain    
Averages and records for this station are not official NWS values.
T = Trace of Precipitation, MM = Missing Value Source: NWS Daily Summary

Daily Weather History Graph

Daily Weather History Graph

Search for Another Location

Airport or City:

Astronomy

Oct. 20, 2011 Rise Set
Actual Time 7:51 AM AKDT 5:41 PM AKDT
Civil Twilight 7:09 AM AKDT 6:22 PM AKDT
Nautical Twilight 6:22 AM AKDT 7:09 PM AKDT
Astronomical Twilight 5:35 AM AKDT 7:57 PM AKDT
Moon No Moon Rise 3:22 PM AKDT (10/20)
Length of Visible Light 11h 13m
Length of Day
9h 49m
Last Quarter, 43% of the Moon is Illuminated
Oct 20
Last Quarter
Oct 26
New
Nov 2
First Quarter
Nov 10
Full
Nov 18
Last Quarter

Hourly Weather History & Observations

Time (AKDT) Temp. Windchill Dew Point Humidity Pressure Visibility Wind Dir Wind Speed Gust Speed Precip Events Conditions
12:54 AM 42.1 °F 37.7 °F 37.9 °F 85% 29.92 in 10.0 mi East 6.9 mph - N/A   Overcast
1:51 AM 42.8 °F 39.3 °F 37.4 °F 81% 29.91 in 10.0 mi ESE 5.8 mph - N/A   Overcast
1:54 AM 42.1 °F 37.7 °F 37.9 °F 85% 29.92 in 10.0 mi Variable 6.9 mph - N/A   Overcast
2:08 AM 42.8 °F 37.5 °F 37.4 °F 81% 29.91 in 10.0 mi East 9.2 mph 16.1 mph N/A   Overcast
2:20 AM 42.8 °F 38.0 °F 37.4 °F 81% 29.92 in 10.0 mi ESE 8.1 mph 17.3 mph N/A   Overcast
2:54 AM 42.1 °F 36.6 °F 37.9 °F 85% 29.93 in 10.0 mi ESE 9.2 mph - N/A   Overcast
3:08 AM 42.8 °F 39.3 °F 37.4 °F 81% 29.92 in 10.0 mi East 5.8 mph - N/A   Overcast
3:17 AM 42.8 °F 38.6 °F 37.4 °F 81% 29.92 in 10.0 mi East 6.9 mph - N/A   Overcast
3:54 AM 42.1 °F 38.4 °F 37.9 °F 85% 29.93 in 10.0 mi ESE 5.8 mph 19.6 mph N/A   Overcast
4:54 AM 42.1 °F 37.1 °F 37.0 °F 82% 29.93 in 10.0 mi East 8.1 mph - N/A   Overcast
5:54 AM 43.0 °F 37.7 °F 37.9 °F 82% 29.93 in 10.0 mi ENE 9.2 mph 17.3 mph N/A   Overcast
6:54 AM 42.1 °F 37.1 °F 37.0 °F 82% 29.93 in 10.0 mi ENE 8.1 mph - N/A   Overcast
7:54 AM 42.1 °F 36.6 °F 37.0 °F 82% 29.93 in 10.0 mi East 9.2 mph - N/A   Overcast
8:54 AM 43.0 °F 36.8 °F 37.0 °F 80% 29.93 in 10.0 mi East 11.5 mph 19.6 mph N/A   Overcast
9:54 AM 43.0 °F 39.5 °F 37.9 °F 82% 29.94 in 10.0 mi Variable 5.8 mph - N/A   Overcast
10:16 AM 42.8 °F 37.5 °F 37.4 °F 81% 29.93 in 10.0 mi ESE 9.2 mph - N/A   Overcast
10:54 AM 44.1 °F 38.6 °F 37.0 °F 76% 29.94 in 10.0 mi ESE 10.4 mph - N/A   Overcast
11:54 AM 43.0 °F 37.2 °F 37.0 °F 80% 29.95 in 10.0 mi East 10.4 mph 18.4 mph N/A   Mostly Cloudy
12:54 PM 43.0 °F 37.7 °F 37.9 °F 82% 29.95 in 10.0 mi ESE 9.2 mph - 0.00 in   Overcast
1:54 PM 44.1 °F 38.6 °F 39.0 °F 82% 29.95 in 10.0 mi East 10.4 mph 20.7 mph N/A   Overcast
2:54 PM 44.1 °F 37.7 °F 39.0 °F 82% 29.93 in 10.0 mi East 12.7 mph 18.4 mph N/A   Overcast
3:54 PM 44.1 °F 39.5 °F 39.0 °F 82% 29.92 in 10.0 mi ESE 8.1 mph 17.3 mph N/A   Overcast
4:26 PM 44.6 °F 40.2 °F 39.2 °F 81% 29.91 in 9.0 mi East 8.1 mph - N/A   Mostly Cloudy
4:54 PM 44.1 °F 37.7 °F 39.0 °F 82% 29.92 in 5.0 mi East 12.7 mph 20.7 mph N/A   Haze
5:54 PM 44.1 °F 40.8 °F 39.0 °F 82% 29.91 in 10.0 mi East 5.8 mph - N/A   Overcast
6:38 PM 42.8 °F 37.5 °F 39.2 °F 87% 29.90 in 10.0 mi East 9.2 mph 16.1 mph 0.00 in Rain Light Rain
6:54 PM 43.0 °F 35.4 °F 39.0 °F 86% 29.91 in 10.0 mi East 16.1 mph 23.0 mph 0.00 in   Overcast
7:01 PM 42.8 °F 37.5 °F 39.2 °F 87% 29.91 in 10.0 mi East 9.2 mph 23.0 mph N/A   Overcast
7:13 PM 42.8 °F 37.5 °F 39.2 °F 87% 29.90 in 9.0 mi East 9.2 mph 18.4 mph 0.00 in Rain Light Rain
7:44 PM 42.8 °F 36.2 °F 39.2 °F 87% 29.90 in 10.0 mi East 12.7 mph 20.7 mph 0.00 in   Overcast
7:54 PM 43.0 °F 37.2 °F 39.0 °F 86% 29.91 in 10.0 mi East 10.4 mph 20.7 mph 0.00 in   Overcast
8:22 PM 42.8 °F 37.0 °F 37.4 °F 81% 29.89 in 10.0 mi East 10.4 mph 18.4 mph N/A   Overcast
8:39 PM 42.8 °F 37.5 °F 37.4 °F 81% 29.89 in 10.0 mi East 9.2 mph 19.6 mph N/A   Mostly Cloudy
8:52 PM 44.6 °F 41.4 °F 37.4 °F 76% 29.89 in 10.0 mi Variable 5.8 mph - N/A   Mostly Cloudy
8:54 PM 44.1 °F 40.1 °F 37.0 °F 76% 29.90 in 10.0 mi Variable 6.9 mph - N/A   Mostly Cloudy
9:19 PM 44.6 °F 39.2 °F 37.4 °F 76% 29.89 in 10.0 mi East 10.4 mph 17.3 mph N/A   Overcast
9:54 PM 44.1 °F 39.0 °F 37.0 °F 76% 29.89 in 10.0 mi East 9.2 mph - N/A   Overcast
10:54 PM 44.1 °F 40.8 °F 37.0 °F 76% 29.88 in 10.0 mi ENE 5.8 mph - N/A   Overcast
11:30 PM 42.8 °F 40.1 °F 37.4 °F 81% 29.85 in 10.0 mi East 4.6 mph - N/A   Overcast
11:52 PM 42.8 °F 40.1 °F 37.4 °F 81% 29.84 in 10.0 mi ESE 4.6 mph - N/A   Mostly Cloudy
11:54 PM 42.1 °F 40.2 °F 37.0 °F 82% 29.85 in 10.0 mi ESE 3.5 mph - N/A   Mostly Cloudy